Location: Bucharest
(44.4268°N, 26.1025°E)
Time: 16:00:03
(UTC+03:00)

CUTE 1.7 + AOD 2 - Pass Details

Date: 04 July 2022
Orbit: 589 x 608 km, 97.7° (Epoch: 14 August)

Event Time Altitude Azimuth Distance (km) Brightness Sun altitude
Rises 04:02:41 0° 30° (NNE) 2,846 ? -13.1°
Reaches altitude 10° 04:05:38 10° 53° (NE) 1,934 ? -12.8°
Maximum altitude 04:08:12 16° 91° (E) 1,584 ? -12.5°
Drops below altitude 10° 04:10:45 10° 129° (SE) 1,918 ? -12.2°
Sets 04:13:40 0° 152° (SSE) 2,811 ? -11.9°
